Station Historical Data
Daily Summary for August 21, 2017 Units:  English    Metric   Both
« Previous Day
Next Day »
Daily Weekly Monthly Yearly Custom
  High: Low: Average:
Temperature: 82.9 °F 63.9 °F 73.4 °F
Dew Point: 70.1 °F 58.1 °F 64.7 °F
Humidity: 85% 60% 75%
Wind Speed: 10.0mph 0.0mph 2mph
Wind Gust: 14.0mph - -
Wind- - SW
Pressure: 30.11 in 29.98 in -
Precipitation: 0.00 in    
Historical Graphs
 
 
Tabular Data for August 21, 2017
Time Temperature Dew Point Pressure Wind Wind Speed Wind Gust Humidity Rainfall Rate (Hourly)
00:04 64.6 °F 58.3 °F 30.10 in Calm     80% 0.00 in
00:09 64.5 °F 58.2 °F 30.10 in Calm     80% 0.00 in
00:14 64.6 °F 58.3 °F 30.10 in Calm     80% 0.00 in
00:19 64.5 °F 58.2 °F 30.10 in Calm     80% 0.00 in
00:24 64.5 °F 58.2 °F 30.10 in Calm     80% 0.00 in
00:29 64.5 °F 58.2 °F 30.10 in Calm     80% 0.00 in
00:34 64.5 °F 58.2 °F 30.11 in Calm     80% 0.00 in
00:39 64.5 °F 58.2 °F 30.11 in Calm     80% 0.00 in
00:44 64.4 °F 58.1 °F 30.11 in Calm     80% 0.00 in
00:49 64.3 °F 58.3 °F 30.11 in Calm     81% 0.00 in
00:54 64.3 °F 58.3 °F 30.11 in Calm     81% 0.00 in
00:59 64.2 °F 58.2 °F 30.10 in Calm     81% 0.00 in
01:04 64.1 °F 58.1 °F 30.10 in Calm     81% 0.00 in
01:09 64.1 °F 58.1 °F 30.10 in Calm     81% 0.00 in
01:14 64.0 °F 58.1 °F 30.10 in Calm     81% 0.00 in
01:19 64.0 °F 58.1 °F 30.10 in Calm     81% 0.00 in
01:24 64.0 °F 58.4 °F 30.10 in Calm     82% 0.00 in
01:29 63.9 °F 58.3 °F 30.10 in Calm     82% 0.00 in
01:34 63.9 °F 58.3 °F 30.10 in Calm     82% 0.00 in
01:39 64.0 °F 58.4 °F 30.10 in Calm     82% 0.00 in
01:44 64.0 °F 58.7 °F 30.10 in Calm     83% 0.00 in
01:49 64.0 °F 58.7 °F 30.10 in Calm     83% 0.00 in
01:54 64.0 °F 58.7 °F 30.09 in Calm     83% 0.00 in
01:59 64.0 °F 58.7 °F 30.09 in Calm     83% 0.00 in
02:04 63.9 °F 58.6 °F 30.09 in Calm     83% 0.00 in
02:09 64.0 °F 59.1 °F 30.09 in Calm     84% 0.00 in
02:14 64.0 °F 59.1 °F 30.09 in Calm     84% 0.00 in
02:19 64.1 °F 59.2 °F 30.09 in Calm     84% 0.00 in
02:24 64.0 °F 59.1 °F 30.10 in Calm     84% 0.00 in
02:29 64.0 °F 59.1 °F 30.10 in Calm     84% 0.00 in
02:34 64.0 °F 59.1 °F 30.10 in Calm     84% 0.00 in
02:39 64.0 °F 59.1 °F 30.10 in Calm     84% 0.00 in
02:44 64.0 °F 59.1 °F 30.10 in Calm     84% 0.00 in
02:49 64.1 °F 59.2 °F 30.10 in Calm     84% 0.00 in
02:54 64.1 °F 59.2 °F 30.10 in Calm     84% 0.00 in
02:59 64.1 °F 59.2 °F 30.10 in Calm     84% 0.00 in
03:04 64.2 °F 59.3 °F 30.10 in Calm     84% 0.00 in
03:09 64.1 °F 59.2 °F 30.10 in Calm     84% 0.00 in
03:14 64.2 °F 59.3 °F 30.09 in Calm     84% 0.00 in
03:19 64.2 °F 59.3 °F 30.09 in Calm     84% 0.00 in
03:24 64.2 °F 59.6 °F 30.09 in Calm     85% 0.00 in
03:29 64.3 °F 59.4 °F 30.09 in Calm     84% 0.00 in
03:34 64.3 °F 59.7 °F 30.09 in Calm     85% 0.00 in
03:39 64.3 °F 59.7 °F 30.09 in Calm     85% 0.00 in
03:44 64.3 °F 59.4 °F 30.09 in Calm     84% 0.00 in
03:49 64.4 °F 59.8 °F 30.09 in Calm     85% 0.00 in
03:54 64.4 °F 59.5 °F 30.09 in Calm     84% 0.00 in
03:59 64.3 °F 59.4 °F 30.09 in Calm     84% 0.00 in
04:04 64.3 °F 59.4 °F 30.09 in Calm     84% 0.00 in
04:09 64.3 °F 59.4 °F 30.09 in Calm     84% 0.00 in
04:14 64.3 °F 59.4 °F 30.09 in Calm     84% 0.00 in
04:19 64.3 °F 59.4 °F 30.08 in Calm     84% 0.00 in
04:24 64.3 °F 59.4 °F 30.09 in Calm     84% 0.00 in
04:29 64.3 °F 59.4 °F 30.08 in Calm     84% 0.00 in
04:34 64.3 °F 59.4 °F 30.09 in Calm     84% 0.00 in
04:39 64.3 °F 59.4 °F 30.09 in Calm     84% 0.00 in
04:44 64.3 °F 59.4 °F 30.09 in Calm     84% 0.00 in
04:49 64.3 °F 59.4 °F 30.09 in Calm     84% 0.00 in
04:54 64.3 °F 59.4 °F 30.09 in Calm     84% 0.00 in
04:59 64.4 °F 59.5 °F 30.09 in Calm     84% 0.00 in
05:04 64.3 °F 59.4 °F 30.09 in Calm     84% 0.00 in
05:09 64.2 °F 59.3 °F 30.09 in Calm     84% 0.00 in
05:14 64.2 °F 59.3 °F 30.09 in Calm     84% 0.00 in
05:19 64.2 °F 59.3 °F 30.09 in Calm     84% 0.00 in
05:24 64.1 °F 59.2 °F 30.08 in Calm     84% 0.00 in
05:29 64.3 °F 59.4 °F 30.09 in Calm     84% 0.00 in
05:34 64.4 °F 59.5 °F 30.08 in Calm     84% 0.00 in
05:39 64.7 °F 59.4 °F 30.08 in Calm     83% 0.00 in
05:44 64.8 °F 59.5 °F 30.08 in Calm     83% 0.00 in
05:49 65.0 °F 59.7 °F 30.09 in Calm     83% 0.00 in
05:54 65.0 °F 59.4 °F 30.09 in Calm     82% 0.00 in
05:59 65.0 °F 59.4 °F 30.09 in Calm     82% 0.00 in
06:04 64.9 °F 59.3 °F 30.09 in Calm     82% 0.00 in
06:09 64.8 °F 59.2 °F 30.09 in Calm     82% 0.00 in
06:14 64.7 °F 59.1 °F 30.09 in Calm     82% 0.00 in
06:19 64.6 °F 59.0 °F 30.09 in Calm     82% 0.00 in
06:24 64.5 °F 58.9 °F 30.09 in Calm     82% 0.00 in
06:29 64.6 °F 59.0 °F 30.09 in Calm     82% 0.00 in
06:34 64.7 °F 59.1 °F 30.09 in Calm     82% 0.00 in
06:39 64.9 °F 59.3 °F 30.09 in Calm     82% 0.00 in
06:44 65.0 °F 59.4 °F 30.09 in Calm     82% 0.00 in
06:49 65.1 °F 59.5 °F 30.09 in Calm     82% 0.00 in
06:54 65.3 °F 59.7 °F 30.09 in Calm     82% 0.00 in
06:59 65.5 °F 59.9 °F 30.09 in Calm     82% 0.00 in
07:04 65.8 °F 59.8 °F 30.09 in Calm     81% 0.00 in
07:09 66.2 °F 60.2 °F 30.09 in Calm     81% 0.00 in
07:14 66.7 °F 60.7 °F 30.09 in Calm     81% 0.00 in
07:19 66.9 °F 60.5 °F 30.09 in Calm     80% 0.00 in
07:24 67.2 °F 60.5 °F 30.09 in Calm     79% 0.00 in
07:29 67.7 °F 61.0 °F 30.09 in Calm     79% 0.00 in
07:34 68.1 °F 61.3 °F 30.09 in Calm     79% 0.00 in
07:39 68.5 °F 61.4 °F 30.09 in Calm     78% 0.00 in
07:44 69.1 °F 61.6 °F 30.09 in Calm     77% 0.00 in
07:49 69.7 °F 61.8 °F 30.09 in Calm     76% 0.00 in
07:54 70.2 °F 61.5 °F 30.09 in Calm     74% 0.00 in
07:59 70.9 °F 61.8 °F 30.10 in Calm     73% 0.00 in
08:04 71.5 °F 62.0 °F 30.10 in Calm     72% 0.00 in
08:09 72.2 °F 62.7 °F 30.11 in Calm     72% 0.00 in
08:14 72.6 °F 62.7 °F 30.11 in Calm   4.0 mph 71% 0.00 in
08:19 72.7 °F 62.8 °F 30.11 in Calm   3.0 mph 71% 0.00 in
08:24 73.0 °F 62.6 °F 30.11 in SSW 2.0 mph 4.0 mph 70% 0.00 in
08:29 73.1 °F 62.7 °F 30.11 in SSW 2.0 mph 6.0 mph 70% 0.00 in
08:34 73.1 °F 62.7 °F 30.11 in SSW 2.0 mph 6.0 mph 70% 0.00 in
08:39 73.3 °F 63.3 °F 30.10 in SSW 6.0 mph 7.0 mph 71% 0.00 in
08:44 73.3 °F 63.3 °F 30.10 in SSW 3.0 mph 7.0 mph 71% 0.00 in
08:49 73.7 °F 63.7 °F 30.10 in South 3.0 mph 9.0 mph 71% 0.00 in
08:54 73.4 °F 63.4 °F 30.11 in SSW 3.0 mph 9.0 mph 71% 0.00 in
08:59 73.2 °F 63.6 °F 30.11 in SSW 4.0 mph 9.0 mph 72% 0.00 in
09:04 73.2 °F 63.6 °F 30.11 in SW 3.0 mph 8.0 mph 72% 0.00 in
09:09 73.4 °F 64.2 °F 30.11 in SSW 3.0 mph 7.0 mph 73% 0.00 in
09:14 74.0 °F 64.0 °F 30.11 in SSW 3.0 mph 7.0 mph 71% 0.00 in
09:19 74.5 °F 64.9 °F 30.11 in SSW 4.0 mph 7.0 mph 72% 0.00 in
09:24 75.3 °F 64.8 °F 30.10 in SW 5.0 mph 8.0 mph 70% 0.00 in
09:29 75.6 °F 65.1 °F 30.10 in SSW 2.0 mph 7.0 mph 70% 0.00 in
09:34 76.2 °F 65.7 °F 30.10 in SW 5.0 mph 6.0 mph 70% 0.00 in
09:39 76.3 °F 65.4 °F 30.09 in SW 2.0 mph 7.0 mph 69% 0.00 in
09:44 76.8 °F 65.9 °F 30.09 in WSW 2.0 mph 5.0 mph 69% 0.00 in
09:49 77.2 °F 65.8 °F 30.08 in SSW 2.0 mph 8.0 mph 68% 0.00 in
09:54 77.4 °F 66.0 °F 30.08 in South 4.0 mph 7.0 mph 68% 0.00 in
09:59 78.0 °F 66.6 °F 30.08 in South 2.0 mph 7.0 mph 68% 0.00 in
10:04 78.5 °F 66.6 °F 30.08 in SW 3.0 mph 6.0 mph 67% 0.00 in
10:09 78.8 °F 66.9 °F 30.08 in SW 3.0 mph 6.0 mph 67% 0.00 in
10:14 79.2 °F 66.9 °F 30.08 in SW 3.0 mph 6.0 mph 66% 0.00 in
10:19 79.3 °F 67.0 °F 30.09 in SW 3.0 mph 7.0 mph 66% 0.00 in
10:24 79.4 °F 67.0 °F 30.08 in SW 6.0 mph 8.0 mph 66% 0.00 in
10:29 79.6 °F 66.8 °F 30.08 in SW 7.0 mph 10.0 mph 65% 0.00 in
10:34 80.1 °F 68.2 °F 30.08 in SW 4.0 mph 7.0 mph 67% 0.00 in
10:39 80.2 °F 66.5 °F 30.08 in WNW 7.0 mph 11.0 mph 63% 0.00 in
10:44 80.0 °F 66.7 °F 30.08 in WSW 3.0 mph 10.0 mph 64% 0.00 in
10:49 80.2 °F 67.8 °F 30.08 in WSW 6.0 mph 9.0 mph 66% 0.00 in
10:54 80.4 °F 66.6 °F 30.08 in SW 6.0 mph 13.0 mph 63% 0.00 in
10:59 80.3 °F 66.6 °F 30.08 in SW 6.0 mph 13.0 mph 63% 0.00 in
11:04 80.5 °F 67.2 °F 30.09 in SW 6.0 mph 12.0 mph 64% 0.00 in
11:09 80.6 °F 66.4 °F 30.09 in SW 6.0 mph 14.0 mph 62% 0.00 in
11:14 81.1 °F 67.8 °F 30.09 in SW 5.0 mph 14.0 mph 64% 0.00 in
11:19 81.5 °F 66.8 °F 30.08 in SW 5.0 mph 10.0 mph 61% 0.00 in
11:24 81.5 °F 66.3 °F 30.09 in WNW 6.0 mph 11.0 mph 60% 0.00 in
11:29 81.2 °F 66.5 °F 30.09 in WNW 5.0 mph 12.0 mph 61% 0.00 in
11:34 81.0 °F 66.3 °F 30.09 in WSW 6.0 mph 12.0 mph 61% 0.00 in
11:39 81.0 °F 66.3 °F 30.09 in WSW 6.0 mph 13.0 mph 61% 0.00 in
11:44 81.1 °F 66.4 °F 30.09 in WSW 4.0 mph 11.0 mph 61% 0.00 in
11:49 81.5 °F 66.8 °F 30.09 in SSW 4.0 mph 10.0 mph 61% 0.00 in
11:54 81.1 °F 65.9 °F 30.09 in WSW 8.0 mph 11.0 mph 60% 0.00 in
11:59 81.1 °F 66.8 °F 30.09 in SW 6.0 mph 10.0 mph 62% 0.00 in
12:04 81.1 °F 65.9 °F 30.09 in WSW 6.0 mph 12.0 mph 60% 0.00 in
12:09 81.0 °F 66.3 °F 30.09 in SW 10.0 mph 10.0 mph 61% 0.00 in
12:14 80.9 °F 67.1 °F 30.09 in WSW 9.0 mph 11.0 mph 63% 0.00 in
12:19 81.0 °F 67.7 °F 30.08 in WSW 5.0 mph 10.0 mph 64% 0.00 in
12:24 81.1 °F 66.8 °F 30.08 in SW 5.0 mph 9.0 mph 62% 0.00 in
12:29 81.1 °F 67.8 °F 30.08 in WSW 4.0 mph 9.0 mph 64% 0.00 in
12:34 80.7 °F 66.9 °F 30.08 in WSW 5.0 mph 9.0 mph 63% 0.00 in
12:39 81.1 °F 67.3 °F 30.08 in WSW 5.0 mph 9.0 mph 63% 0.00 in
12:44 80.6 °F 66.8 °F 30.08 in WSW 5.0 mph 11.0 mph 63% 0.00 in
12:49 81.1 °F 67.3 °F 30.08 in WSW 5.0 mph 11.0 mph 63% 0.00 in
12:54 81.4 °F 67.6 °F 30.08 in WSW 5.0 mph 10.0 mph 63% 0.00 in
12:59 81.6 °F 67.8 °F 30.08 in West 5.0 mph 10.0 mph 63% 0.00 in
13:04 81.6 °F 67.8 °F 30.08 in SSW 6.0 mph 9.0 mph 63% 0.00 in
13:09 81.7 °F 68.8 °F 30.08 in SW 4.0 mph 8.0 mph 65% 0.00 in
13:14 81.6 °F 67.8 °F 30.08 in West 3.0 mph 10.0 mph 63% 0.00 in
13:19 81.5 °F 67.7 °F 30.08 in WSW 6.0 mph 11.0 mph 63% 0.00 in
13:24 81.7 °F 68.8 °F 30.08 in WSW 7.0 mph 11.0 mph 65% 0.00 in
13:29 81.6 °F 68.7 °F 30.08 in SSW 2.0 mph 9.0 mph 65% 0.00 in
13:34 81.8 °F 69.3 °F 30.07 in WSW 4.0 mph 9.0 mph 66% 0.00 in
13:39 81.5 °F 69.0 °F 30.07 in SW 4.0 mph 8.0 mph 66% 0.00 in
13:44 81.4 °F 68.5 °F 30.07 in SW 4.0 mph 9.0 mph 65% 0.00 in
13:49 81.0 °F 68.6 °F 30.07 in WSW 5.0 mph 10.0 mph 66% 0.00 in
13:54 80.8 °F 68.4 °F 30.07 in WSW 4.0 mph 11.0 mph 66% 0.00 in
13:59 80.5 °F 68.1 °F 30.07 in WSW 2.0 mph 8.0 mph 66% 0.00 in
14:04 80.2 °F 68.2 °F 30.07 in West 2.0 mph 8.0 mph 67% 0.00 in
14:09 79.3 °F 67.8 °F 30.07 in West 5.0 mph 9.0 mph 68% 0.00 in
14:14 79.0 °F 68.0 °F 30.07 in WSW 5.0 mph 8.0 mph 69% 0.00 in
14:19 78.6 °F 68.0 °F 30.07 in SSW 3.0 mph 8.0 mph 70% 0.00 in
14:24 78.5 °F 68.3 °F 30.07 in SW 3.0 mph 6.0 mph 71% 0.00 in
14:29 78.5 °F 68.3 °F 30.07 in WSW 5.0 mph 7.0 mph 71% 0.00 in
14:34 78.0 °F 67.8 °F 30.07 in WSW 4.0 mph 8.0 mph 71% 0.00 in
14:39 77.6 °F 68.3 °F 30.06 in WSW 4.0 mph 8.0 mph 73% 0.00 in
14:44 77.5 °F 68.6 °F 30.06 in WSW 4.0 mph 7.0 mph 74% 0.00 in
14:49 77.6 °F 68.7 °F 30.06 in SW 3.0 mph 7.0 mph 74% 0.00 in
14:54 77.4 °F 68.5 °F 30.06 in SW 4.0 mph 8.0 mph 74% 0.00 in
14:59 77.6 °F 69.0 °F 30.06 in WSW 4.0 mph 8.0 mph 75% 0.00 in
15:04 78.2 °F 70.0 °F 30.06 in WSW 2.0 mph 10.0 mph 76% 0.00 in
15:09 78.1 °F 68.3 °F 30.06 in WSW 4.0 mph 8.0 mph 72% 0.00 in
15:14 78.4 °F 69.0 °F 30.06 in WSW 4.0 mph 10.0 mph 73% 0.00 in
15:19 78.9 °F 68.7 °F 30.06 in West 5.0 mph 8.0 mph 71% 0.00 in
15:24 79.4 °F 69.2 °F 30.06 in WSW 1.0 mph 10.0 mph 71% 0.00 in
15:29 80.2 °F 69.5 °F 30.06 in SW 6.0 mph 8.0 mph 70% 0.00 in
15:34 80.3 °F 68.8 °F 30.06 in WSW 4.0 mph 9.0 mph 68% 0.00 in
15:39 80.9 °F 69.8 °F 30.05 in WSW 4.0 mph 9.0 mph 69% 0.00 in
15:44 81.0 °F 69.4 °F 30.05 in WSW 4.0 mph 9.0 mph 68% 0.00 in
15:49 81.2 °F 68.8 °F 30.05 in SSW 7.0 mph 10.0 mph 66% 0.00 in
15:54 81.6 °F 69.1 °F 30.05 in WSW 1.0 mph 8.0 mph 66% 0.00 in
15:59 82.2 °F 69.3 °F 30.05 in SW 7.0 mph 10.0 mph 65% 0.00 in
16:04 82.2 °F 69.3 °F 30.05 in SW 4.0 mph 10.0 mph 65% 0.00 in
16:09 82.3 °F 69.4 °F 30.05 in SW 4.0 mph 10.0 mph 65% 0.00 in
16:14 82.2 °F 68.8 °F 30.05 in SW 5.0 mph 10.0 mph 64% 0.00 in
16:19 82.3 °F 69.4 °F 30.05 in West 4.0 mph 8.0 mph 65% 0.00 in
16:24 82.9 °F 69.9 °F 30.04 in SW 6.0 mph 8.0 mph 65% 0.00 in
16:29 82.9 °F 69.0 °F 30.05 in SW 2.0 mph 8.0 mph 63% 0.00 in
16:34 82.5 °F 69.1 °F 30.05 in WSW 2.0 mph 9.0 mph 64% 0.00 in
16:39 82.3 °F 68.4 °F 30.04 in SW 5.0 mph 9.0 mph 63% 0.00 in
16:44 82.0 °F 68.6 °F 30.04 in SW 5.0 mph 10.0 mph 64% 0.00 in
16:49 82.3 °F 68.4 °F 30.04 in SW 5.0 mph 10.0 mph 63% 0.00 in
16:54 82.4 °F 69.4 °F 30.04 in SW 4.0 mph 9.0 mph 65% 0.00 in
16:59 82.7 °F 69.3 °F 30.04 in SW 1.0 mph 8.0 mph 64% 0.00 in
17:04 82.4 °F 68.5 °F 30.03 in SW 5.0 mph 8.0 mph 63% 0.00 in
17:09 82.2 °F 69.3 °F 30.03 in SW 4.0 mph 8.0 mph 65% 0.00 in
17:14 82.2 °F 69.3 °F 30.03 in WSW 4.0 mph 7.0 mph 65% 0.00 in
17:19 82.1 °F 68.7 °F 30.03 in WSW 4.0 mph 9.0 mph 64% 0.00 in
17:24 81.9 °F 69.0 °F 30.03 in SW 4.0 mph 9.0 mph 65% 0.00 in
17:29 82.1 °F 69.6 °F 30.03 in SW 4.0 mph 8.0 mph 66% 0.00 in
17:34 81.8 °F 68.9 °F 30.03 in WSW 5.0 mph 8.0 mph 65% 0.00 in
17:39 81.8 °F 69.3 °F 30.03 in WSW 4.0 mph 8.0 mph 66% 0.00 in
17:44 81.6 °F 69.6 °F 30.03 in WSW 4.0 mph 8.0 mph 67% 0.00 in
17:49 81.2 °F 69.2 °F 30.03 in WSW 3.0 mph 9.0 mph 67% 0.00 in
17:54 81.2 °F 69.2 °F 30.03 in SW 3.0 mph 7.0 mph 67% 0.00 in
17:59 81.2 °F 70.1 °F 30.03 in SSW 5.0 mph 6.0 mph 69% 0.00 in
18:04 80.9 °F 69.8 °F 30.03 in WSW 3.0 mph 7.0 mph 69% 0.00 in
18:09 80.6 °F 69.1 °F 30.03 in SSW 3.0 mph 8.0 mph 68% 0.00 in
18:14 80.5 °F 69.4 °F 30.03 in SW 3.0 mph 9.0 mph 69% 0.00 in
18:19 80.2 °F 69.5 °F 30.02 in WSW 3.0 mph 9.0 mph 70% 0.00 in
18:24 80.2 °F 69.5 °F 30.03 in WSW 3.0 mph 6.0 mph 70% 0.00 in
18:29 80.1 °F 69.8 °F 30.03 in WSW 3.0 mph 6.0 mph 71% 0.00 in
18:34 79.8 °F 68.7 °F 30.02 in WSW 7.0 mph 8.0 mph 69% 0.00 in
18:39 79.5 °F 68.9 °F 30.02 in WSW 4.0 mph 8.0 mph 70% 0.00 in
18:44 79.1 °F 68.5 °F 30.02 in SSW 2.0 mph 7.0 mph 70% 0.00 in
18:49 78.9 °F 68.7 °F 30.02 in SSW 2.0 mph 6.0 mph 71% 0.00 in
18:54 79.0 °F 68.8 °F 30.02 in WSW 6.0 mph 6.0 mph 71% 0.00 in
18:59 78.7 °F 68.5 °F 30.02 in SW 2.0 mph 8.0 mph 71% 0.00 in
19:04 78.5 °F 68.3 °F 30.02 in WSW 2.0 mph 6.0 mph 71% 0.00 in
19:09 78.4 °F 68.2 °F 30.02 in WSW 3.0 mph 8.0 mph 71% 0.00 in
19:14 78.2 °F 68.4 °F 30.03 in WSW 4.0 mph 8.0 mph 72% 0.00 in
19:19 78.1 °F 68.7 °F 30.03 in WSW 4.0 mph 7.0 mph 73% 0.00 in
19:24 78.0 °F 68.6 °F 30.03 in WSW 3.0 mph 7.0 mph 73% 0.00 in
19:29 77.7 °F 68.4 °F 30.03 in WSW 3.0 mph 7.0 mph 73% 0.00 in
19:34 77.5 °F 68.2 °F 30.03 in WSW 1.0 mph 8.0 mph 73% 0.00 in
19:39 77.3 °F 68.0 °F 30.03 in WSW 2.0 mph 5.0 mph 73% 0.00 in
19:44 77.1 °F 68.2 °F 30.03 in WSW 2.0 mph 5.0 mph 74% 0.00 in
19:49 76.9 °F 68.0 °F 30.03 in WSW 1.0 mph 3.0 mph 74% 0.00 in
19:54 76.7 °F 68.2 °F 30.02 in Calm     75% 0.00 in
19:59 76.4 °F 67.9 °F 30.02 in Calm     75% 0.00 in
20:04 76.2 °F 68.1 °F 30.01 in Calm   1.0 mph 76% 0.00 in
20:09 76.1 °F 68.0 °F 30.01 in WSW 1.0 mph 3.0 mph 76% 0.00 in
20:14 75.9 °F 67.8 °F 30.01 in Calm   3.0 mph 76% 0.00 in
20:19 75.7 °F 68.0 °F 30.01 in Calm   2.0 mph 77% 0.00 in
20:24 75.4 °F 67.7 °F 30.01 in Calm     77% 0.00 in
20:29 75.2 °F 67.9 °F 30.01 in Calm     78% 0.00 in
20:34 74.9 °F 67.6 °F 30.02 in Calm     78% 0.00 in
20:39 74.6 °F 67.7 °F 30.02 in Calm     79% 0.00 in
20:44 74.4 °F 67.8 °F 30.02 in Calm     80% 0.00 in
20:49 74.0 °F 67.4 °F 30.01 in Calm     80% 0.00 in
20:54 73.7 °F 67.5 °F 30.01 in Calm     81% 0.00 in
20:59 73.6 °F 67.4 °F 30.01 in Calm     81% 0.00 in
21:04 73.5 °F 67.7 °F 30.01 in Calm     82% 0.00 in
21:09 73.4 °F 67.6 °F 30.01 in Calm     82% 0.00 in
21:14 73.3 °F 67.5 °F 30.01 in Calm     82% 0.00 in
21:19 73.1 °F 67.3 °F 30.01 in Calm     82% 0.00 in
21:24 73.0 °F 67.2 °F 30.01 in Calm     82% 0.00 in
21:29 72.9 °F 67.4 °F 30.01 in Calm     83% 0.00 in
21:34 72.8 °F 67.3 °F 30.01 in Calm     83% 0.00 in
21:39 72.7 °F 67.2 °F 30.01 in Calm     83% 0.00 in
21:44 72.7 °F 67.6 °F 30.01 in Calm     84% 0.00 in
21:49 73.0 °F 67.9 °F 30.01 in Calm     84% 0.00 in
21:54 72.9 °F 67.4 °F 30.02 in Calm     83% 0.00 in
21:59 72.8 °F 67.3 °F 30.01 in Calm     83% 0.00 in
22:04 72.7 °F 67.2 °F 30.01 in Calm     83% 0.00 in
22:09 72.6 °F 67.5 °F 30.01 in Calm     84% 0.00 in
22:14 72.4 °F 67.3 °F 30.01 in Calm     84% 0.00 in
22:19 72.1 °F 67.0 °F 30.01 in Calm     84% 0.00 in
22:24 72.0 °F 66.9 °F 30.01 in Calm     84% 0.00 in
22:29 72.1 °F 67.3 °F 30.00 in Calm   4.0 mph 85% 0.00 in
22:34 72.2 °F 67.4 °F 30.00 in SSE 1.0 mph 3.0 mph 85% 0.00 in
22:39 72.4 °F 67.6 °F 30.00 in Calm   3.0 mph 85% 0.00 in
22:44 72.4 °F 67.3 °F 30.00 in Calm     84% 0.00 in
22:49 72.1 °F 67.0 °F 29.99 in Calm   1.0 mph 84% 0.00 in
22:54 72.0 °F 66.6 °F 29.99 in Calm   3.0 mph 83% 0.00 in
22:59 71.9 °F 66.8 °F 29.99 in Calm   3.0 mph 84% 0.00 in
23:04 71.8 °F 66.7 °F 29.99 in Calm   3.0 mph 84% 0.00 in
23:09 71.6 °F 66.2 °F 29.99 in Calm   2.0 mph 83% 0.00 in
23:20 71.3 °F 66.2 °F 29.99 in Calm     84% 0.00 in
23:29 71.1 °F 65.7 °F 29.99 in Calm     83% 0.00 in
23:34 71.0 °F 65.6 °F 29.98 in Calm     83% 0.00 in
23:39 70.8 °F 65.4 °F 29.98 in Calm     83% 0.00 in
23:44 70.8 °F 65.4 °F 29.98 in Calm     83% 0.00 in
23:49 70.6 °F 65.2 °F 29.98 in Calm     83% 0.00 in
23:54 70.6 °F 65.2 °F 29.98 in Calm     83% 0.00 in
23:59 70.6 °F 65.2 °F 29.98 in Calm     83% 0.00 in
Buffalo, New York, USA
Compliments of Weather Underground - 2.5 mb